Roswell, NM

11:15 AM MST on February 14, 2016 (GMT -0700)
Roswell Industrial

Weather History for KROW - April, 2013

Change the Weather History Date:

Monday, April 15, 2013

  Actual Average Record
Temperature  
Mean Temperature 72 °F 60 °F  
Max Temperature 90 °F 77 °F 98 °F (1934)
Min Temperature 54 °F 44 °F 24 °F (2014)
Degree Days  
Heating Degree Days 0 5  
Month to date heating degree days 86 106  
Since 1 July heating degree days 2857 3200  
Cooling Degree Days 7 1  
Month to date cooling degree days 24 10  
Year to date cooling degree days 26 13  
Growing Degree Days 22 (Base 50)    
Moisture  
Dew Point 20 °F    
Average Humidity 22    
Maximum Humidity 38    
Minimum Humidity 5    
Precipitation  
Precipitation 0.00 in 0.02 in 1.44 in (1915)
Month to date precipitation T 0.24  
Year to date precipitation 0.44 1.55  
Sea Level Pressure  
Sea Level Pressure 29.53 in    
Wind  
Wind Speed 12 mph (WSW)    
Max Wind Speed 28 mph    
Max Gust Speed 33 mph    
Visibility 10 miles    
Events      
T = Trace of Precipitation, MM = Missing Value Source: NWS Daily Summary

Daily Weather History Graph

Daily Weather History Graph

Search for Another Location

Airport or City:

Trip Planner

Search our weather history database for the weather conditions in past years. The results will help you decide how hot, cold, wet, or windy it might be!

Date:

Astronomy

Apr. 15, 2013 Rise Set
Actual Time 6:27 AM MDT 7:29 PM MDT
Civil Twilight 6:02 AM MDT 7:54 PM MDT
Nautical Twilight 5:31 AM MDT 8:24 PM MDT
Astronomical Twilight 5:00 AM MDT 8:56 PM MDT
Moon 10:04 AM MDT (4/15) No Moon Set
Length of Visible Light 13h 52m
Length of Day
13h 01m
Waxing Crescent, 25% of the Moon is Illuminated
Apr 15
Waxing Crescent
Apr 18
First Quarter
Apr 25
Full
May 2
Last Quarter
May 9
New

Hourly Weather History & Observations

Time (MDT) Temp. Dew Point Humidity Pressure Visibility Wind Dir Wind Speed Gust Speed Precip Events Conditions
12:51 AM 69.1 °F 21.0 °F 16% 29.44 in 10.0 mi WSW 16.1 mph - N/A   Clear
1:51 AM 69.1 °F 21.0 °F 16% 29.46 in 10.0 mi West 11.5 mph - N/A   Clear
2:51 AM 66.9 °F 21.0 °F 17% 29.47 in 10.0 mi West 11.5 mph - N/A   Clear
3:51 AM 64.9 °F 21.0 °F 19% 29.49 in 10.0 mi Calm Calm - N/A   Clear
4:51 AM 57.0 °F 19.9 °F 24% 29.52 in 10.0 mi SSW 8.1 mph - N/A   Clear
5:51 AM 63.0 °F 23.0 °F 22% 29.52 in 10.0 mi West 5.8 mph - N/A   Clear
6:51 AM 57.9 °F 23.0 °F 26% 29.55 in 10.0 mi WSW 10.4 mph - N/A   Clear
7:31 AM 53.6 °F 28.4 °F 38% 29.75 in 10.0 mi North 13.8 mph - N/A   Clear
7:51 AM 54.0 °F 28.9 °F 38% 29.60 in 10.0 mi North 13.8 mph - N/A   Clear
8:51 AM 57.9 °F 27.0 °F 31% 29.62 in 10.0 mi North 12.7 mph - N/A   Clear
9:51 AM 63.0 °F 26.1 °F 25% 29.62 in 10.0 mi North 12.7 mph - N/A   Clear
10:51 AM 68.0 °F 27.0 °F 21% 29.62 in 10.0 mi North 9.2 mph - N/A   Clear
11:51 AM 72.0 °F 28.0 °F 20% 29.61 in 10.0 mi NE 4.6 mph - N/A   Clear
12:51 PM 77.0 °F 26.1 °F 15% 29.54 in 10.0 mi Variable 5.8 mph - N/A   Clear
1:51 PM 82.9 °F 25.0 °F 12% 29.49 in 10.0 mi SSE 9.2 mph - N/A   Clear
2:51 PM 87.1 °F 23.0 °F 10% 29.45 in 10.0 mi SSE 10.4 mph - N/A   Clear
3:51 PM 90.0 °F 10.0 °F 5% 29.41 in 10.0 mi WSW 20.7 mph 31.1 mph N/A   Clear
4:51 PM 89.1 °F 10.0 °F 5% 29.43 in 10.0 mi West 19.6 mph 31.1 mph N/A   Clear
5:51 PM 87.1 °F 10.9 °F 6% 29.43 in 10.0 mi West 16.1 mph 27.6 mph N/A   Clear
6:51 PM 84.9 °F 10.9 °F 6% 29.46 in 10.0 mi WSW 18.4 mph - N/A   Clear
7:51 PM 79.0 °F 10.9 °F 8% 29.51 in 10.0 mi SW 16.1 mph - N/A   Clear
8:51 PM 73.9 °F 12.9 °F 10% 29.53 in 10.0 mi SW 17.3 mph - N/A   Clear
9:51 PM 73.9 °F 16.0 °F 11% 29.55 in 10.0 mi SSW 12.7 mph - N/A   Clear
10:51 PM 70.0 °F 16.0 °F 13% 29.56 in 10.0 mi SSW 11.5 mph - N/A   Clear
11:51 PM 71.1 °F 18.0 °F 13% 29.55 in 10.0 mi SSW 20.7 mph - N/A   Clear